Union Aéronautique de la Côte d'Azur

Union Aéronautique de la Côte d'Azur
UACA
Approuvé A.T.O. EASA – N°FR.ATO.0108

UNION des aéroclubs
Cannes “Ailes d’Azur”, Nice “Côte d’Azur”, Grasse “St Exupery”, ACCA “Francis Séverac”

Un cache-pitot se trouve à bord de chaque avion. Pensez à le mettre en place à la fin de chaque vol !

Avant de quitter l'avion, vérifiez que vous n'emportez pas la checklist

Un vol ne s'entreprend qu'avec un pare-brise parfaitement propre, il en va de votre sécurité, et de celle des autres

Après chaque vol, merci de mettre en place les pares-soleil!


Météo à Cannes:
METAR
LFMD 180730Z AUTO VRB03KT 9999 BKN020 BKN036 25/19 Q1015 NOSIG =
AMD LFMD 180323Z 1803/1903 VRB03KT 9999 BKN015 BECMG 1806/1808 SCT020 BECMG 1808/1810 17010KT FEW020 BECMG 1817/1819 VRB02KT TEMPO 1821/1903 BKN010

TAF
AMD LFMD 180323Z 1803/1903 VRB03KT 9999 BKN015 BECMG 1806/1808 SCT020 BECMG 1808/1810 17010KT FEW020 BECMG 1817/1819 VRB02KT TEMPO 1821/1903 BKN010 =

SR / SS: 04:38 / 18:34 UTC (LFMD 2019-08-18)